Location: Unspecified
(49.9820°N, 20.4363°E)
Time: 09:40:42
(UTC+02:00)

ISS - Pass Details

Date: 21 July 2018
Orbit: 402 x 408 km, 51.6° (Epoch: 23 July)

Event Time Altitude Azimuth Distance (km) Brightness Sun altitude
Rises 01:23:03 0° 281° (WNW) 2,329 0.1 -19.0°
Reaches altitude 10° 01:25:08 10° 284° (WNW) 1,469 -1.0 -18.9°
Maximum altitude 01:28:25 70° 9° (N) 438 -3.6 -18.8°
Drops below altitude 10° 01:31:43 10° 94° (E) 1,470 -0.9 -18.7°
Sets 01:33:48 0° 96° (E) 2,331 0.1 -18.7°
